Location: Tamazert
(32.6352°N, 5.2072°W)
Time: 05:46:15
(UTC+00:00)

Vanguard 2 Rocket - Pass Details

Date: 11 October 2022
Orbit: 555 x 3321 km, 32.9° (Epoch: 04 December)

Event Time Altitude Azimuth Distance (km) Brightness Sun altitude
Rises 21:06:17 0° 254° (WSW) 7,278 12.1 -41.0°
Reaches altitude 10° 21:11:11 10° 254° (WSW) 6,275 11.6 -41.9°
Enters shadow 21:30:59 85° 202° (SSW) 2,800 9.0 -45.8°
Maximum altitude 21:31:23 86° 169° (S) 2,778 - -45.8°
Drops below altitude 10° 21:44:40 10° 82° (E) 4,376 - -48.3°
Sets 21:47:27 0° 82° (E) 5,071 - -48.8°
